Current Version              Previous Version:    01  02  03  04  05  06  07  08  09  10  11  12  13  14  15  16  17  18  19  20  21  22  23  24  25  26  27  28  29  30  
   31  32  33  34  35  36  37  38  39  40  41  42  43  44  45  46  47  48  49  50  51  52  53  54  55  56  57  58  59  60  

[Printable]
434
ASUS44 KLUB 291510
RWRTX
WEST TEXAS WEATHER ROUNDUP
NATIONAL WEATHER SERVICE LUBBOCK TX
1000 AM CDT FRI AUG 29 2014

NOTE: "FAIR" INDICATES FEW OR NO CLOUDS BELOW 12,000 FEET WITH NO
SIGNIFICANT WEATHER AND/OR OBSTRUCTIONS TO VISIBILITY.

TXZ004-006>008-010-012-014-016-OKZ002-291600-
TEXAS PANHANDLE/OKLAHOMA PANHANDLE

CITY           SKY/WX    TMP DP  RH WIND       PRES   REMARKS
AMARILLO       SUNNY     73  52  47 NW7       30.04F
BORGER         SUNNY     75  52  44 VRB5      30.02S
CANADIAN       SUNNY     71  63  77 CALM      29.97S
DALHART        SUNNY     71  52  50 W8        30.08S
DUMAS          SUNNY     73  51  46 W5        30.05S
GUYMON         SUNNY     76  50  40 N12       29.99F
HEREFORD       SUNNY     74  57  54 N3        30.08S
PAMPA          SUNNY     71  53  52 NW13      30.02S
PERRYTON       SUNNY     71  57  61 NW10      29.99R
$$

TXZ026-029-035-045-048-291600-
SOUTHERN PANHANDLE/SOUTH PLAINS/ROLLING PLAINS

CITY           SKY/WX    TMP DP  RH WIND       PRES   REMARKS
CHILDRESS      CLOUDY    70  66  87 SW6       30.00S
SEMINOLE       SUNNY     73  63  71 NE6       30.04S
LUBBOCK        CLOUDY    71  64  78 NE5       30.05R
PLAINVIEW      CLOUDY    70  65  84 NW5       30.04S
SNYDER         CLOUDY    71  69  92 N6        30.00R
$$

TXZ052-054-060>062-072-078-127-140-154-169-291600-
PERMIAN BASIN/CONCHO VALLEY/BIG COUNTRY/EDWARDS PLATEAU

CITY           SKY/WX    TMP DP  RH WIND       PRES   REMARKS
ABILENE        PTSUNNY   76  69  79 S12G18    29.96R
BIG SPRING     CLOUDY    79  71  75 S7        30.01R
BRADY          MOSUNNY   79  72  78 SE12      29.94S
BROWNWOOD      SUNNY     75  70  83 SE5       29.95R
JUNCTION       MOSUNNY   78  68  71 S9        29.95F
MIDLAND        SUNNY     78  67  68 S12       29.98R
ODESSA         SUNNY     78  66  66 S15       29.98R
SAN ANGELO     SUNNY     81  68  64 S17       29.94S
SONORA         PTSUNNY   79  68  69 SE10      30.00S
SWEETWATER     CLOUDY    74  70  87 SE9       30.02R
WINK           SUNNY     79  65  62 S7        29.96R
$$

TXZ055-058-074-075-080-082-291600-
FAR WEST/SOUTHWEST MOUNTAINS/TRANS PECOS

CITY           SKY/WX    TMP DP  RH WIND       PRES   REMARKS
ALPINE         SUNNY     76  53  43 NE5       30.13R
DRYDEN           N/A     81  69  67 SE9       29.94R
EL PASO        PTSUNNY   77  48  35 N20       30.03S
FORT STOCKTON  SUNNY     76  58  53 W7        29.99R
GUADALUPE PASS MOSUNNY   73  42  32 SW6       30.16R
MARFA          SUNNY     77  52  41 N10       30.11R
PECOS          MOSUNNY   75  56  50 NW14G21   29.97R
PRESIDIO       FAIR      80  60  50 CALM      29.96R
$$

TXZ014-016-019-021>030-083-291600
TEXAS TECH WEST TEXAS MESONET/TEXAS PANHANDLE/NORTHERN SOUTH PLAINS

CITY           SKY/WX    TMP DP  RH WIND       PRES   REMARKS
ABERNATHY 5ENE   N/A     68  63  84 CALM      30.06S
AMARILLO 9NNE    N/A     73  54  51 NW5       30.03F
AMARILLO 7SSE    N/A     74  52  45 NW7       30.06S
AMHERST 1NE      N/A     70  63  78 N3        30.07R
BOOTLEG 11WNW    N/A     72  50  45 N3        30.12S
CANADIAN 6E      N/A     70  64  81 CALM      29.97S
CAPROCK CYN SP   N/A     71  65  81 S8        30.02S
CHILDRESS 2NNE   N/A     69  67  94 SW2       29.99S
CLARENDON 2WSW   N/A     70  63  80 S7        30.01F
CLAUDE 12SW      N/A     70  60  70 W5        30.05R
DIMMITT 2NE      N/A     72  56  57 N5        30.07S
FLOYDADA 2NNE    N/A     65  64  97 CALM      30.05S
FRIONA 2NE       N/A     69  53  57 NE2       30.10S
GOODLETT 3W      N/A     72  66  80 SW5       29.97S
HART 3N          N/A     70  60  70 N2        30.07R
HEREFORD 2NW     N/A     71  53  53 N5        30.07S
MCLEAN 1E        N/A     70  65  86 SW5       29.99S
MEMPHIS 1NE      N/A     70  67  92 SE5       29.98S
MULESHOE 2SSW    N/A     71  58  62 NE6       30.08R
OLTON 6S         N/A     71  62  73 N3        30.06R
PALO DURO SP     N/A     73  57  56 NW1       30.06R
PAMPA 2E         N/A     71  57  61 NW9       30.01S
PLAINVIEW 1S     N/A     69  64  83 W2        30.05R
SILVERTON 7ESE   N/A     73  63  71 SW6       30.03F
TULIA 2ENE       N/A     70  62  74 NW2       30.05S
TURKEY 2WSW      N/A     72  66  81 S9        30.00F
UMBARGER 3NNE    N/A     72  52  49 N7        30.07S
$$

TXZ033>036-039>041-045>048-291600
TEXAS TECH WEST TEXAS MESONET/SOUTH PLAINS

CITY           SKY/WX    TMP DP  RH WIND       PRES   REMARKS
AIKEN 3WSW       N/A     69  64  84 S3        30.06S
ANDREWS 2NE      N/A     75  63  67 E3        30.01S
ANTON 6SSW       N/A     69  64  84 E6        30.05F
BROWNFIELD 2S    N/A     70  62  76 N7        30.05R
DENVR CTY 7WNW   N/A     70  61  72 N7        30.06S
GAIL 2ESE        N/A     71  67  87 N5        30.00R
LAMESA 2SE       N/A     70  66  85 NE5       30.03R
LEVELLAND 4S     N/A     69  63  81 N6        30.06S
LUBBOCK 3WNW     N/A     70  63  78 NE3       30.06R
MORTON 1ENE      N/A     71  62  75 E5        30.07S
ODONNELL 1N      N/A     69  64  85 N9        30.04R
PLAINS 3N        N/A     70  62  75 NE6       30.07R
RALLS 1SE        N/A     66  65  94 NE3       30.06R
REESE CENTER     N/A     70  64  80 N7        30.05S
SEAGRAVES 1SW    N/A     72  63  72 NE7       30.04S
SEMINOLE 2NNE    N/A     71  62  73 NE7       30.03S
SLATON 2NE       N/A     67  64  90 NE5       30.05R
SNYDER 3E        N/A     70  69  95 N6        29.99R
SUNDOWN 8SW      N/A     70  62  74 NE3       30.07R
TAHOKA 3NNE      N/A     69  64  83 NE8       30.04R
WOLFFORTH 6SSW   N/A     70  64  80 NE6       30.06R
$$

TXZ031-032-036>038-042>044-291600-
TEXAS TECH WEST TEXAS MESONET/ROLLING PLAINS

CITY           SKY/WX    TMP DP  RH WIND       PRES   REMARKS
ASPERMONT 3NE    N/A     73  67  83 CALM      29.97S
FLUVANNA 3WNW    N/A     69  66  92 N5        30.01S
GRAHAM 5SSW      N/A     68  65  90 N8        30.03R
GUTHRIE 10WSW    N/A     69  67  93 N2        29.99R
HASKELL 1NW      N/A     72  64  77 S6        29.96R
JAYTON 1SSE      N/A     70  67  90 N2        29.99R
KNOX CITY 3NW    N/A     73  65  76 S5        29.97S
LK A HENRY 1NW   N/A     69  67  95 NE5       30.00S
NORTHFIELD 1S    N/A     67  67  97 CALM      30.00S
ODELL 4ENE       N/A     71  67  89 SW8       29.97R
PADUCAH 10SW     N/A     68  66  94 W2        30.00R
POST 1NE         N/A     70  68  94 N6        30.02S
RRING SPRGS 3N   N/A     66  65  97 NE1       30.03R
SEYMOUR 3NW      N/A     74  66  76 S7        29.95S
SPUR 1W          N/A     68  65  93 N5        30.00S
WEINERT 2NNE     N/A     74  66  77 S6        29.97R
WHITE RVR 6NE    N/A     68  65  92 N5        30.02S
$$

TXZ052-054-060>062-072-078-127-140-154-169-291600-
TEXAS TECH WEST TEXAS MESONET/PERMIAN BASIN/
CONCHO VALLEY/BIG COUNTRY/EDWARDS PLATEAU

CITY           SKY/WX    TMP DP  RH WIND       PRES   REMARKS
JUNCTION 1SSW    N/A     80  69  70 S7        29.96S
MERTZON 3NNE     N/A     79  68  68 S14       29.96S
SAN ANGELO 7NW   N/A     81  66  60 SE13      29.94S
STRLNG CT 4WSW   N/A     78  68  71 SE14      29.96R
ST LAWRNCE 5SW   N/A     76  68  77 S15       29.96S
SWEETWATR 11SW   N/A     74  70  87 SE7       30.00R
WALL 1E          N/A     79  67  66 S10       29.95S
$$

TXZ055-058-074-075-080-082-291600-
TEXAS TECH WEST TEXAS MESONET/FAR WEST/SOUTHWEST MOUNTAINS/TRANS PECOS

CITY           SKY/WX    TMP DP  RH WIND       PRES   REMARKS
PRSMN GAP BBNP   N/A     79  66  65 N14       29.97R
GUADLPE MTN NP   N/A     79  41  26 E9        30.15S
$$